This demonstration page uses our WeatherBlox Daily Observations layout. Learn more.

Hourly Observations for February 1, 2019

Temp ( °F °C ) Dew Point ( °F °C ) Humidity (%) Winds ( mph kmh ) Pressure ( in mb ) Visibility ( mi km ) Precip ( " mm )
12:15 am 00:15 Clear 29 -1.9 22 -5.6 76 76 SSW 7 11 30.1 1019 10 16.0934 0 0
12:35 am 00:35 Clear 30 -1.1 22 -5.5 72 72 SSW 6 9 30.1 1019 10 16.0934 0 0
12:55 am 00:55 Clear 28 -2 22 -5.6 77 77 SW 8 13 30.1 1019 10 16.0934 0 0
1:15 am 01:15 Clear 29 -1.8 22 -5.6 76 76 SW 7 11 30.11 1020 10 16.0934 0 0
1:35 am 01:35 Clear 31 -0.8 23 -5.1 73 73 SW 10 17 30.1 1019 10 16.0934 0 0
1:55 am 01:55 Clear 30 -1 23 -5.1 74 74 SW 8 13 30.1 1019 10 16.0934 0 0
2:15 am 02:15 Clear 29 -1.6 23 -5.2 77 77 SW 7 11 30.11 1020 10 16.0934 0 0
2:35 am 02:35 Clear 30 -1 23 -5.2 73 73 SW 6 9 30.1 1019 10 16.0934 0 0
2:55 am 02:55 Clear 29 -1.5 22 -5.5 74 74 WSW 5 7 30.11 1020 10 16.0934 0 0
3:15 am 03:15 Clear 30 -1.1 22 -5.3 73 73 WSW 6 9 30.11 1019 10 16.0934 0 0
3:35 am 03:35 Clear 31 -0.5 22 -5.4 70 70 WSW 3 6 30.1 1019 10 16.0934 0 0
3:55 am 03:55 Clear 32 0 22 -5.3 68 68 WSW 5 7 30.09 1019 10 16.0934 0 0
4:15 am 04:15 Clear 32 -0.1 22 -5.3 68 68 SW 7 11 30.1 1019 10 16.0934 0 0
4:35 am 04:35 Clear 32 -0.2 22 -5.5 68 68 SW 7 11 30.09 1019 10 16.0934 0 0
4:55 am 04:55 Clear 31 -0.5 22 -5.6 69 69 SW 7 11 30.09 1019 10 16.0934 0 0
5:15 am 05:15 Clear 30 -1 22 -5.5 72 72 SW 7 11 30.1 1019 10 16.0934 0 0
5:35 am 05:35 Clear 29 -1.4 22 -5.5 74 74 SW 7 11 30.11 1020 10 16.0934 0 0
5:55 am 05:55 Clear 28 -2.3 22 -5.7 78 78 SSW 7 11 30.12 1020 10 16.0934 0 0
6:15 am 06:15 Clear 28 -2 22 -5.6 77 77 SSW 8 13 30.11 1020 10 16.0934 0 0
6:35 am 06:35 Clear 28 -2.5 22 -5.7 79 79 SW 9 15 30.12 1020 10 16.0934 0 0
6:55 am 06:55 Clear 27 -2.8 22 -5.7 81 81 SW 8 13 30.12 1020 10 16.0934 0 0
7:15 am 07:15 Clear 27 -2.7 22 -5.6 81 81 SW 7 11 30.12 1020 10 16.0934 0 0
7:35 am 07:35 Clear 27 -3 22 -5.7 82 82 SW 6 9 30.12 1020 10 16.0934 0 0
7:55 am 07:55 Sunny 26 -3.2 21 -6 81 81 SW 7 11 30.13 1020 10 16.0934 0 0
8:15 am 08:15 Sunny 27 -2.8 22 -5.5 82 82 SW 6 9 30.12 1020 10 16.0934 0 0
8:35 am 08:35 Sunny 30 -1 22 -5.3 73 73 SW 7 11 30.11 1020 10 16.0934 0 0
8:55 am 08:55 Sunny 33 0.4 24 -4.6 69 69 SW 5 7 30.11 1020 10 16.0934 0 0
9:15 am 09:15 Sunny 35 1.6 24 -4.3 65 65 SW 6 9 30.1 1019 10 16.0934 0 0
9:35 am 09:35 Sunny 37 2.8 25 -3.7 63 63 WSW 7 11 30.1 1019 10 16.0934 0 0
9:55 am 09:55 Sunny 39 3.8 26 -3.5 59 59 SW 7 11 30.09 1019 10 16.0934 0 0
10:15 am 10:15 Sunny 41 5 26 -3.3 55 55 WSW 7 11 30.09 1019 10 16.0934 0 0
10:35 am 10:35 Sunny 43 6.3 26 -3.6 50 50 WSW 9 15 30.08 1018 10 16.0934 0 0
10:55 am 10:55 Sunny 46 7.5 26 -3.5 46 46 WSW 8 13 30.07 1018 10 16.0934 0 0
11:15 am 11:15 Sunny 46 8 26 -3.4 45 45 SW 10 17 30.06 1018 10 16.0934 0 0
11:35 am 11:35 Sunny 47 8.5 27 -3 45 45 SW 10 17 30.06 1018 10 16.0934 0 0
11:55 am 11:55 Sunny 49 9.3 25 -3.8 40 40 SW 10 17 30.05 1018 10 16.0934 0 0
12:15 pm 12:15 Sunny 50 10.2 27 -3 40 40 SW 13 20 30.03 1017 10 16.0934 0 0
12:35 pm 12:35 Sunny 51 10.8 26 -3.1 38 38 SW 14 22 30.02 1016 10 16.0934 0 0
12:55 pm 12:55 Sunny 52 11.1 26 -3.1 37 37 SW 14 22 30 1016 10 16.0934 0 0
1:15 pm 13:15 Sunny 53 11.5 26 -3.2 36 36 SW 12 19 29.99 1016 10 16.0934 0 0
1:35 pm 13:35 Sunny 54 12.1 27 -3 35 35 SSW 18 30 29.97 1015 10 16.0934 0 0
1:55 pm 13:55 Sunny 55 12.7 28 -2.4 35 35 SSW 17 28 29.97 1015 10 16.0934 0 0
2:15 pm 14:15 Sunny 56 13.5 28 -2.4 33 33 SW 17 28 29.95 1014 10 16.0934 0 0
2:35 pm 14:35 Sunny 57 13.8 28 -2.1 33 33 SSW 16 26 29.94 1014 10 16.0934 0 0
2:55 pm 14:55 Sunny 57 14.1 29 -1.9 33 33 SSW 17 28 29.94 1014 10 16.0934 0 0
3:15 pm 15:15 Sunny 58 14.2 30 -1.3 35 35 S 18 30 29.93 1013 10 16.0934 0 0
3:35 pm 15:35 Sunny 57 13.7 31 -0.6 38 38 S 15 24 29.93 1014 10 16.0934 0 0
3:55 pm 15:55 Sunny 55 13 31 -0.6 39 39 S 17 28 29.94 1014 10 16.0934 0 0
4:15 pm 16:15 Sunny 56 13.5 31 -0.6 38 38 SSW 13 20 29.93 1014 10 16.0934 0 0
4:35 pm 16:35 Sunny 56 13.6 30 -0.9 37 37 S 12 19 29.92 1013 10 16.0934 0 0
4:55 pm 16:55 Sunny 56 13.3 30 -1.2 37 37 S 15 24 29.92 1013 10 16.0934 0 0
5:15 pm 17:15 Sunny 55 12.8 28 -2 36 36 SSW 13 20 29.93 1013 10 16.0934 0 0
5:35 pm 17:35 Sunny 53 11.5 28 -2.2 39 39 SSW 12 19 29.94 1014 10 16.0934 0 0
5:55 pm 17:55 Sunny 50 10 28 -2.4 42 42 SSW 10 17 29.96 1015 10 16.0934 0 0
6:15 pm 18:15 Clear 48 8.8 28 -2.2 46 46 SSW 10 17 29.97 1015 10 16.0934 0 0
6:35 pm 18:35 Clear 46 7.6 28 -2.3 50 50 S 10 17 29.98 1015 10 16.0934 0 0
6:55 pm 18:55 Clear 45 7 28 -2.5 51 51 S 9 15 30 1016 10 16.0934 0 0
7:15 pm 19:15 Clear 44 6.5 28 -2.2 54 54 S 8 13 30 1016 10 16.0934 0 0
7:35 pm 19:35 Clear 43 6.2 28 -2.1 56 56 S 9 15 30.01 1016 10 16.0934 0 0
7:55 pm 19:55 Clear 42 5.5 28 -2 59 59 SSW 10 17 30 1016 10 16.0934 0 0
8:15 pm 20:15 Clear 42 5.6 28 -2 58 58 SSW 15 24 30 1016 10 16.0934 0 0
8:35 pm 20:35 Clear 42 5.4 28 -2 59 59 SSW 12 19 30 1016 10 16.0934 0 0
8:55 pm 20:55 Clear 40 4.7 28 -2 62 62 SSW 9 15 30.02 1017 10 16.0934 0 0
9:15 pm 21:15 Clear 41 5 29 -1.9 61 61 SSW 10 17 30.02 1017 10 16.0934 0 0
9:35 pm 21:35 Clear 40 4.5 28 -2 63 63 SSW 9 15 30.03 1017 10 16.0934 0 0
9:55 pm 21:55 Clear 40 4.7 29 -1.7 64 64 SSW 16 26 30.02 1017 10 16.0934 0 0
10:15 pm 22:15 Clear 41 4.8 29 -1.8 63 63 SSW 14 22 30.02 1017 10 16.0934 0 0
10:35 pm 22:35 Clear 39 3.7 28 -2 67 67 SSW 12 19 30.03 1017 10 16.0934 0 0
10:55 pm 22:55 Clear 39 3.7 28 -2 67 67 SSW 9 15 30.03 1017 10 16.0934 0 0
11:15 pm 23:15 Clear 37 3 28 -2 70 70 SSW 12 19 30.03 1017 10 16.0934 0 0
11:35 pm 23:35 Clear 37 2.5 29 -1.5 75 75 SSW 13 20 30.04 1017 10 16.0934 0 0
11:55 pm 23:55 Clear 37 2.5 30 -1.1 77 77 SSW 10 17 30.04 1017 10 16.0934 0 0

Powered by AerisWeather